Location: Kunchanapalle
(16.4623°N, 80.6176°E)
Time: 11:19:16
(UTC+00:00)

Cosmos 1315 Rocket - Visible Passes

Search period start: 20 June 2021 00:00
Search period end: 30 June 2021 00:00
Orbit: 530 x 567 km, 81.2° (Epoch: 19 June)

Date Brightness Start Highest point End Pass type
(mag) Time Alt. Az. Time Alt. Az. Time Alt. Az.
20 Jun 4.1 15:23:19 10° NNW 15:25:58 38° NNW 15:25:58 38° NNW visible
21 Jun 3.8 15:18:30 10° NNW 15:21:39 46° NW 15:21:39 46° NW visible
22 Jun 3.6 15:13:41 10° NNW 15:17:22 50° W 15:17:22 50° W visible
23 Jun 3.7 15:08:53 10° NNW 15:12:45 44° W 15:13:07 43° WSW visible
24 Jun 4.0 15:04:05 10° NNW 15:07:53 39° W 15:08:55 32° SW visible
25 Jun 4.3 14:59:19 10° NNW 15:03:00 34° W 15:04:45 23° SW visible
26 Jun 4.6 14:54:34 10° NNW 14:58:07 30° W 15:00:39 16° SSW visible
27 Jun 4.8 14:49:50 10° NW 14:53:15 27° W 14:56:35 10° SSW visible
28 Jun 5.0 14:45:07 10° NW 14:48:22 24° W 14:51:36 10° SSW visible
29 Jun 5.3 14:40:25 10° NW 14:43:30 21° W 14:46:32 10° SW visible
